CW8427 Weather Reports


time (UTC)temp
C
wind
direction
speed
KPH
gust
KPH
rain 1hr
cm
rain 24hr
cm
rain mn
cm
humidity
%
barometer
mb
20260502105632 6 165 1.6 4.8 0.00 0.00 0.00 64 1019.8
20260502104632 6 166 0.0 3.2 0.00 0.00 0.00 64 1019.7
20260502103629 6 166 3.2 9.7 0.00 0.00 0.00 62 1019.7
20260502102624 6 109 3.2 4.8 0.00 0.00 0.00 62 1019.7
20260502101641 6 109 1.6 3.2 0.00 0.00 0.00 61 1019.7
20260502100640 7 109 3.2 4.8 0.00 0.00 0.00 60 1019.8
20260502090631 7 202 9.7 14.5 0.00 0.00 0.00 59 1019.5
20260502070625 9 121 3.2 6.4 0.00 0.00 0.00 53 1019.5
20260502065628 10 121 3.2 4.8 0.00 0.00 0.00 52 1019.5
20260502064644 10 121 3.2 4.8 0.00 0.00 0.00 50 1019.5
20260502063619 10 121 0.0 3.2 0.00 0.00 0.00 47 1019.4
20260502062615 11 121 3.2 4.8 0.00 0.00 0.00 46 1019.4
20260502060640 11 239 3.2 4.8 0.00 0.00 0.00 44 1019.2
20260502055617 12 244 3.2 8.0 0.00 0.00 0.00 43 1019.2
20260502054632 12 9 4.8 6.4 0.00 0.00 0.00 42 1019.2
20260502053627 12 182 4.8 16.1 0.00 0.00 0.00 40 1019.1
20260502052626 12 150 11.3 17.7 0.00 0.00 0.00 41 1019.0
20260502051622 11 157 9.7 16.1 0.00 0.00 0.00 43 1019.0
20260502050618 12 135 6.4 12.9 0.00 0.00 0.00 44 1019.1
20260502045621 12 155 8.0 14.5 0.00 0.00 0.00 44 1019.0
20260502044615 12 140 8.0 16.1 0.00 0.00 0.00 44 1019.0
20260502043631 12 128 11.3 14.5 0.00 0.00 0.00 44 1019.0
20260502042624 12 134 8.0 11.3 0.00 0.00 0.00 44 1019.0
20260502041624 13 119 8.0 11.3 0.00 0.00 0.00 43 1018.9
20260502040639 13 141 6.4 8.0 0.00 0.00 0.00 42 1018.9
20260502035637 13 141 3.2 11.3 0.00 0.00 0.00 43 1018.9
20260502034631 13 141 8.0 11.3 0.00 0.00 0.00 42 1018.7
20260502033647 13 155 8.0 11.3 0.00 0.00 0.00 41 1018.6
20260502032645 14 163 6.4 9.7 0.00 0.00 0.00 40 1018.5
20260502031615 14 173 8.0 11.3 0.00 0.00 0.00 38 1018.3
20260502030631 15 238 4.8 6.4 0.00 0.00 0.00 37 1018.1
20260502025626 15 360 0.0 0.0 0.00 0.00 0.00 36 1017.9
20260502024626 16 360 0.0 0.0 0.00 0.00 0.00 33 1017.8
20260502023622 16 360 0.0 4.8 0.00 0.00 0.00 32 1017.7
20260502022615 17 5 0.0 4.8 0.00 0.00 0.00 31 1017.7
20260502021615 17 311 1.6 3.2 0.00 0.00 0.00 29 1017.6
20260502020632 18 311 0.0 6.4 0.00 0.00 0.00 27 1017.6
20260502015646 18 343 1.6 8.0 0.00 0.00 0.00 27 1017.5
20260502014621 18 329 6.4 12.9 0.00 0.00 0.00 27 1017.5
20260502013620 18 318 6.4 16.1 0.00 0.00 0.00 27 1017.5
20260502012653 18 297 8.0 16.1 0.00 0.00 0.00 26 1017.4
20260502011624 18 316 9.7 16.1 0.00 0.00 0.00 27 1017.4
20260502010618 18 302 12.9 20.9 0.00 0.00 0.00 27 1017.4
20260502005616 18 315 14.5 20.9 0.00 0.00 0.00 27 1017.4
20260502004631 18 275 12.9 19.3 0.00 0.00 0.00 26 1017.4
20260502003627 18 305 17.7 27.4 0.00 0.00 0.00 27 1017.4
20260502002624 18 302 14.5 24.1 0.00 0.00 0.00 26 1017.4
20260502001623 18 283 14.5 25.7 0.00 0.00 0.00 27 1017.5
20260502000632 18 306 14.5 24.1 0.00 0.00 0.00 27 1017.5
20260501235627 18 330 12.9 25.7 0.00 0.00 0.00 27 1017.4
20260501234621 18 292 19.3 24.1 0.00 0.00 0.00 27 1017.4
20260501233622 18 288 17.7 27.4 0.00 0.00 0.00 26 1017.5
20260501232618 18 330 12.9 24.1 0.00 0.00 0.00 27 1017.6
20260501231615 18 325 16.1 24.1 0.00 0.00 0.00 26 1017.7
20260501230614 18 306 16.1 25.7 0.00 0.00 0.00 25 1017.8
20260501225629 18 334 14.5 20.9 0.00 0.00 0.00 28 1017.9
20260501224621 18 298 14.5 24.1 0.00 0.00 0.00 28 1017.9
20260501223617 18 315 14.5 24.1 0.00 0.00 0.00 28 1018.0
20260501222636 18 313 17.7 24.1 0.00 0.00 0.00 28 1018.2
20260501221628 18 331 14.5 20.9 0.00 0.00 0.00 29 1018.3
20260501220645 18 355 11.3 24.1 0.00 0.00 0.00 27 1018.4
20260501215617 18 313 9.7 22.5 0.00 0.00 0.00 27 1018.6
20260501214616 18 333 14.5 27.4 0.00 0.00 0.00 29 1018.7
20260501213633 18 336 12.9 27.4 0.00 0.00 0.00 28 1018.8
20260501212649 18 306 16.1 24.1 0.00 0.00 0.00 30 1018.9
20260501211624 18 313 12.9 24.1 0.00 0.00 0.00 29 1018.9
20260501210623 18 315 16.1 20.9 0.00 0.00 0.00 27 1018.9
20260501205620 18 315 14.5 24.1 0.00 0.00 0.00 28 1019.0
20260501204616 18 342 14.5 24.1 0.00 0.00 0.00 28 1019.0
20260501203616 18 325 12.9 24.1 0.00 0.00 0.00 27 1018.9
20260501202632 17 327 16.1 24.1 0.00 0.00 0.00 28 1018.9
20260501201628 17 305 17.7 25.7 0.00 0.00 0.00 28 1019.0
20260501200640 17 298 19.3 24.1 0.00 0.00 0.00 27 1019.0
20260501195620 17 350 11.3 20.9 0.00 0.00 0.00 28 1019.2
20260501194617 17 331 11.3 24.1 0.00 0.00 0.00 27 1019.2
20260501193632 17 337 11.3 24.1 0.00 0.00 0.00 29 1019.2
20260501192623 17 309 12.9 22.5 0.00 0.00 0.00 28 1019.3
20260501191623 17 311 19.3 25.7 0.00 0.00 0.00 27 1019.3
20260501190619 18 329 4.8 17.7 0.00 0.00 0.00 24 1019.5
20260501185616 18 122 0.0 17.7 0.00 0.00 0.00 26 1019.6
20260501184652 18 130 12.9 22.5 0.00 0.00 0.00 24 1019.6
20260501183650 18 105 14.5 25.7 0.00 0.00 0.00 22 1019.8
20260501182624 18 48 11.3 17.7 0.00 0.00 0.00 26 1019.9
20260501181617 18 178 12.9 19.3 0.00 0.00 0.00 25 1020.0
20260501180618 17 24 8.0 24.1 0.00 0.00 0.00 24 1020.1
20260501175617 17 118 14.5 30.6 0.00 0.00 0.00 25 1020.1
20260501174616 17 144 11.3 33.8 0.00 0.00 0.00 26 1020.2
20260501173631 17 99 14.5 27.4 0.00 0.00 0.00 27 1020.2
20260501171626 16 93 14.5 27.4 0.00 0.00 0.00 27 1020.4
20260501170618 16 178 17.7 30.6 0.00 0.00 0.00 28 1020.4
20260501165648 16 103 17.7 33.8 0.00 0.00 0.00 29 1020.4
20260501164643 15 136 11.3 22.5 0.00 0.00 0.00 29 1020.4
20260501163619 15 90 17.7 30.6 0.00 0.00 0.00 29 1020.5
20260501162618 15 101 16.1 25.7 0.00 0.00 0.00 31 1020.6